This demonstration page uses our WeatherBlox Daily Observations layout. Learn more.

Left ArrowRight Arrow

41.86663, -103.66717

Hourly Observations for January 18, 2021

Temp ( °F °C ) Dew Point ( °F °C ) Humidity (%) Winds ( mph kmh ) Pressure ( in mb ) Visibility ( mi km ) Precip ( " mm )
12:53 am 00:53 Cloudy 41 5 23 -5 49 49 NW 23 37 29.85 1011 10 16 0.00 0.00
1:53 am 01:53 Cloudy 38 3.3 24 -4.4 57 57 NW 24 39 29.88 1012 10 16 0.00 0.00
2:53 am 02:53 Clear 36 2.2 24 -4.4 62 62 WNW 17 28 29.92 1013 10 16 0.00 0.00
3:53 am 03:53 Partly Cloudy 34 1.1 23 -5 64 64 WNW 10 17 29.95 1014 10 16 0.00 0.00
4:53 am 04:53 Cloudy 34 1.1 23 -5 64 64 WNW 9 15 29.99 1016 10 16 0.00 0.00
5:53 am 05:53 Cloudy 34 1.1 22 -5.6 61 61 WNW 13 20 30.02 1017 10 16 0.00 0.00
6:53 am 06:53 Clear 32 0 20 -6.7 61 61 WNW 15 24 30.04 1017 10 16 0.00 0.00
7:53 am 07:53 Mostly Cloudy 32 0 22 -5.6 66 66 WNW 13 20 30.05 1018 10 16 0.00 0.00
8:53 am 08:53 Mostly Cloudy 34 1.1 22 -5.6 61 61 WNW 13 20 30.08 1019 10 16 0.00 0.00
9:53 am 09:53 Mostly Sunny 39 3.9 24 -4.4 55 55 WNW 16 26 30.06 1018 10 16 0.00 0.00
10:53 am 10:53 Mostly Cloudy 39 3.9 23 -5 53 53 WNW 18 30 30.07 1018 10 16 0.00 0.00
11:53 am 11:53 Mostly Cloudy 44 6.7 21 -6.1 40 40 WNW 25 41 30.03 1017 10 16 0.00 0.00
12:53 pm 12:53 Cloudy 40 4.4 17 -8.3 40 40 NW 31 50 30.03 1017 10 16 0.00 0.00
1:53 pm 13:53 Cloudy 39 3.9 18 -7.8 43 43 NW 28 44 30.05 1018 10 16 0.00 0.00
2:53 pm 14:53 Partly Cloudy 41 5 21 -6.1 45 45 NW 26 43 30.07 1018 10 16 0.00 0.00
3:53 pm 15:53 Mostly Cloudy 37 2.8 14 -10 39 39 NNW 24 39 30.12 1020 10 16 0.00 0.00
4:53 pm 16:53 Clear 32 0 17 -8.3 54 54 NNW 15 24 30.20 1023 10 16 0.00 0.00
5:53 pm 17:53 Clear 28 -2.2 15 -9.4 58 58 NNW 10 17 30.25 1024 10 16 0.00 0.00
6:53 pm 18:53 Clear 24 -4.4 15 -9.4 68 68 W 8 13 30.30 1026 10 16 0.00 0.00
7:53 pm 19:53 Clear 24 -4.4 16 -8.9 71 71 NW 8 13 30.33 1027 10 16 0.00 0.00
8:53 pm 20:53 Clear 21 -6.1 15 -9.4 78 78 WNW 9 15 30.34 1027 10 16 0.00 0.00
9:53 pm 21:53 Clear 19 -7.2 14 -10 81 81 WNW 7 11 30.34 1028 10 16 0.00 0.00
10:53 pm 22:53 Clear 18 -7.8 13 -10.6 81 81 WNW 3 6 30.37 1028 10 16 0.00 0.00
11:53 pm 23:53 Clear 17 -8.3 11 -11.7 77 77 WNW 8 13 30.36 1028 10 16 0.00 0.00

Powered by AerisWeather